#timestamp,LO_Frequency,Hit,StdDev 
1557525615.9,286047002.6,N
1557525635.7,286047002.0,N
1557525655.5,286047002.6,N
1557525675.4,286047000.3,N
1557525695.2,286046999.2,N
1557525715.0,286046997.9,N
1557525715.9,286046997.9,N
1557525735.8,286046995.2,N
1557525755.6,286046997.7,N
1557525775.5,286046997.4,N
1557525795.3,286046998.3,N
1557525815.1,286046998.9,N
1557525835.9,286046998.4,N
1557525855.7,286047001.0,N
1557525875.5,286046999.8,N
1557525895.4,286047002.5,N
1557525915.2,286047000.1,N
1557525935.1,286047000.0,N
1557525936.0,286047000.0,N
1557525955.8,286046998.1,N
1557525975.6,286047000.7,N
1557525995.5,286046998.4,N
1557526015.3,286047001.1,N
1557526035.1,286046998.8,N
1557526055.9,286046998.6,N
1557526075.7,286047001.0,N
1557526095.6,286046998.2,N
1557526115.4,286047000.6,N
1557526135.2,286047001.8,N
1557526155.1,286047005.3,Y
1557526156.0,286047005.3,P
1557526175.8,286047005.6,N
1557526195.6,286047004.4,N
1557526215.6,286047001.3,N
1557526235.4,286047003.0,N
1557526255.2,286047001.6,N
1557526275.1,286047002.2,N
1557526276.0,286047002.2,N
1557526295.8,286046999.9,N
1557526315.6,286046999.7,N
1557526335.5,286047002.3,N
1557526355.3,286047001.6,N
1557526375.1,286047001.4,N
1557526395.9,286046999.9,N
1557526415.7,286047000.6,N
1557526435.6,286046999.5,N
1557526455.4,286046999.2,N
1557526475.2,286046998.2,N
1557526495.1,286047000.9,N
1557526496.0,286047000.9,N
1557526515.8,286047001.9,N
1557526535.6,286047004.4,N
1557526555.5,286047001.6,N
1557526575.3,286047000.1,N
1557526595.2,286047000.1,N
1557526615.9,286047002.2,N
1557526635.7,286047004.2,N
1557526655.6,286047001.9,N
1557526675.4,286047002.4,N
1557526695.2,286047001.8,N
1557526715.1,286047002.5,N
1557526716.0,286047002.5,N
1557526735.8,286047001.4,N
1557526755.7,286047003.9,N
1557526775.5,286047002.5,N
1557526795.3,286046999.9,N
1557526815.2,286047000.0,N
1557526835.0,286047001.0,N
1557526835.9,286047001.0,N
1557526855.8,286046998.6,N
1557526875.6,286047001.1,N
1557526895.4,286047003.5,N
1557526915.3,286047005.4,Y
1557526935.1,286046999.9,P
1557526955.8,286047003.5,P
1557526975.7,286047004.6,P
1557526995.5,286047003.0,N
1557527015.4,286047003.2,N
1557527035.2,286047004.2,N
1557527055.0,286047002.4,N
1557527055.9,286047002.4,N
1557527075.8,286047000.6,N
1557527095.6,286047001.0,N
1557527115.5,286047000.7,N
1557527135.3,286047001.1,N
1557527155.1,286046999.6,N
1557527175.9,286046997.3,N
1557527195.7,286046997.0,N
1557527215.5,286046999.4,N
1557527235.4,286046996.9,N
1557527255.2,286046999.2,N
1557527275.1,286046999.9,N
1557527276.0,286046999.9,N
1557527295.8,286047002.5,N
1557527315.6,286047002.4,N
1557527335.5,286047000.2,N
1557527355.3,286046999.8,N
1557527375.1,286047001.0,N
1557527395.9,286047001.1,N
1557527415.7,286046999.0,N
1557527435.6,286046997.3,N
1557527455.4,286046999.6,N
1557527475.2,286046999.6,N
1557527495.1,286046996.5,N
1557527496.0,286046996.5,N
1557527515.8,286046999.5,N
1557527535.7,286047001.0,N
1557527555.5,286047002.8,N
1557527575.3,286047000.1,N
1557527595.2,286046998.8,N
1557527615.9,286046999.4,N
1557527635.7,286046997.0,N
1557527655.6,286046996.8,N
1557527675.4,286047001.1,N
1557527695.2,286047004.2,N
1557527715.1,286047003.9,N
1557527716.0,286047003.9,N
1557527735.8,286047000.0,N
1557527755.7,286047000.9,N
1557527775.5,286046998.4,N
1557527795.3,286046998.4,N
1557527815.2,286047000.7,N
1557527835.0,286047002.8,N
1557527835.9,286047002.8,N
1557527855.7,286046999.9,N
1557527875.6,286047000.9,N
1557527895.4,286046998.7,N
1557527915.3,286047001.1,N
1557527935.1,286047000.8,N
1557527936.0,286047000.8,N
1557527955.8,286046998.5,N
1557527975.7,286047002.7,N
1557527995.5,286047002.2,N
1557528015.3,286047003.2,N
1557528035.2,286047001.5,N
1557528055.0,286047001.1,N
1557528055.9,286047001.1,N
1557528075.8,286046998.5,N
1557528095.6,286047000.1,N
1557528115.4,286047000.5,N
1557528135.3,286046998.4,N
1557528155.1,286046998.7,N
1557528175.9,286046999.6,N
1557528195.7,286046999.8,N
1557528215.5,286046999.7,N
1557528235.4,286047000.0,N
1557528255.2,286047000.9,N
1557528275.1,286047000.9,N
1557528276.0,286047000.9,N
1557528295.8,286047001.8,N
1557528315.6,286046999.9,N
1557528335.5,286047001.6,N
1557528355.3,286047000.9,N
1557528375.1,286047000.4,N
1557528395.9,286047000.5,N
1557528415.7,286047002.8,N
1557528435.6,286047000.9,N
1557528455.4,286046998.1,N
1557528475.2,286047002.8,N
1557528495.1,286047000.0,N
1557528496.0,286047000.0,N
1557528515.8,286047000.4,N
1557528535.7,286046999.9,N
1557528555.5,286047000.5,N
1557528575.3,286046999.2,N
1557528595.2,286046996.5,Y
1557528615.9,286046999.6,P
1557528635.7,286046998.5,P
1557528655.6,286047000.9,N
1557528675.4,286047003.6,Y
1557528695.3,286046999.7,P
1557528715.1,286046998.2,P
1557528716.0,286046998.2,N
1557528735.8,286046998.6,N
1557528755.7,286047001.2,N
1557528775.5,286047002.3,N
1557528795.3,286047001.3,N
1557528815.2,286047002.0,N
1557528835.0,286047003.8,N
1557528835.9,286047003.8,N
1557528855.8,286047003.1,N
1557528875.6,286047005.5,N
1557528895.4,286047004.9,N
1557528915.3,286047006.9,N
1557528935.1,286047005.8,N
1557528955.8,286047001.7,N
1557528975.7,286047001.4,N
1557528995.5,286047004.4,N
1557529015.4,286047003.4,N
1557529035.2,286047001.4,N
1557529055.0,286047000.5,N
1557529055.9,286047000.5,N
1557529075.8,286046998.6,N
1557529095.6,286046998.1,N
1557529115.4,286047001.2,N
1557529135.3,286047000.5,N
1557529155.1,286047000.8,N
1557529175.8,286047001.1,N
1557529195.7,286046998.1,N
